Temp_Advection
nan nan nan nan nan nan nan nan nan nan nan nan nan nan nan nan nan nan nan nan nan nan nan nan nan nan nan nan nan nan nan nan nan nan nan nan nan nan nan nan nan nan nan nan nan nan nan nan nan
nan 0 0 0 -0 0 -0 -0 0 -0 -0 -0 -0 -0 -0 -0 -0 -0 -0 1 0 -0 -0 -0 -0 0 -0 -0 0 0 0 0 0 0 -0 -0 -0 0 -0 0 -0 -0 -0 -0 0 0 -0 -0 nan
nan 0 0 -0 0 -0 0 -0 -0 0 -0 -0 -0 -0 -0 -0 -0 -0 -1 -0 0 -0 -0 -0 -0 0 0 0 -0 0 0 0 0 0 0 -0 -0 0 0 0 0 -0 -0 0 0 0 0 0 nan
nan -0 -0 0 -0 0 -0 0 -0 0 0 -0 -0 -0 -0 0 -1 -1 -1 -0 -0 -0 -0 -0 -0 -0 0 0 -0 0 0 0 0 0 0 -0 -0 -0 0 0 0 0 -0 0 0 0 0 0 nan
nan -0 -0 0 0 -0 -0 -0 -1 -0 0 0 -0 -0 -0 0 0 0 -0 -0 -0 -0 -0 -0 0 0 -0 -0 -0 -0 -0 -0 0 0 -0 -0 -0 -0 -0 0 0 0 -0 -0 0 0 -0 -0 nan
nan -0 -0 0 -0 -0 -0 -0 -0 -0 -0 -1 -0 -0 0 0 -0 0 0 0 0 -0 -0 -0 -0 0 0 -0 -0 -0 -0 -0 -0 0 0 -0 -0 -0 -0 0 0 0 0 0 -0 0 0 -0 nan
nan -0 -0 -0 0 0 -0 -0 -0 -0 -0 -0 -1 -0 0 1 0 0 0 0 0 0 0 -0 -0 -0 -0 -0 -0 -0 -0 0 -0 -0 -0 0 -0 -0 -0 -0 -0 0 0 0 0 -0 0 0 nan
nan -0 -0 -0 -0 0 0 -0 -0 -0 -0 -0 -1 -1 -0 1 0 0 0 0 0 0 0 -0 -0 -0 -0 -0 -0 -0 -0 -0 -0 -0 0 0 0 -0 -0 0 0 -0 -0 0 0 0 0 0 nan
nan -0 -0 -0 -0 -0 -0 -0 -0 -0 -0 0 0 -1 -2 -0 -0 -0 -0 -0 -0 -0 -0 0 0 -0 -0 -0 -0 0 0 -0 0 0 0 0 0 0 -0 0 0 -0 -0 0 0 0 0 0 nan
nan -0 -1 -0 -0 -0 0 -0 -0 -0 -1 -1 0 1 0 -0 -0 -1 -1 -1 -1 -0 0 0 -0 0 -0 -0 0 0 0 0 0 0 0 0 0 0 -0 -0 -0 -0 0 0 0 0 0 0 nan
nan -1 -0 0 -0 -1 -0 -0 -0 -1 -0 -1 -2 0 -0 -0 -0 -0 -0 -0 -0 0 0 0 -0 -0 0 0 0 0 0 0 0 -0 -0 -0 -0 -0 -0 -0 -0 0 -0 0 0 0 -0 -0 nan
nan -1 -0 -0 0 -1 -0 -0 -0 -0 -0 -1 -2 -2 -1 -1 -1 -0 -0 -0 0 -0 -0 -0 0 0 0 0 0 -0 -0 -0 -0 0 -0 0 -0 -0 -0 -0 -0 -0 -0 0 0 -0 -0 -0 nan
nan 0 -0 -0 0 -0 -0 -0 -0 -0 -0 -0 0 -1 -1 -1 -0 -0 0 0 -0 -0 -0 -0 -0 0 0 -0 0 -0 0 0 -0 -0 -0 -0 0 -0 -0 -0 -0 -0 -0 0 0 -0 -0 -0 nan
nan 0 -0 0 0 -0 -1 0 -0 -0 -0 -1 0 -0 -0 -0 -0 -0 -0 -0 -0 -0 -0 -0 -0 -0 -0 -0 0 -0 -0 -0 -0 -0 -0 -0 0 -0 -0 0 0 0 -0 -0 -0 -0 -0 -0 nan
nan -0 -0 -0 -0 -0 -0 -0 0 -0 0 -0 -0 -0 0 0 -0 -0 -1 -0 0 0 -0 -0 0 0 0 0 -0 0 0 -0 -0 -0 -0 -0 -0 0 0 0 -0 -0 0 0 0 -0 -0 -0 nan
nan -0 0 -0 -0 -0 -0 -0 0 0 -0 0 -0 -0 -0 -0 0 1 1 0 -0 -0 -0 0 0 0 0 0 -0 0 0 -0 -0 -0 -0 0 0 0 -0 -0 0 0 0 0 0 -0 -0 -0 nan
nan -0 -0 0 -0 -0 -0 -0 -0 1 -0 0 0 -0 -0 -0 0 0 -0 -0 -0 0 0 0 -0 -0 -0 -0 -0 0 0 -0 -0 -0 0 0 0 0 0 0 0 0 0 0 0 -0 -0 0 nan
nan -0 -0 0 -0 -1 -0 -0 0 0 0 0 0 -0 0 -0 -1 -1 -0 0 -0 0 0 0 0 0 0 -0 0 0 -0 -0 -0 -0 -0 0 0 0 0 0 0 0 0 0 0 -0 -0 0 nan
nan 0 0 -0 -0 -1 -0 -0 -0 0 0 0 -0 0 -0 -0 -0 -0 0 0 -0 0 -0 0 0 0 0 0 -0 -0 -0 -0 -0 -0 -0 0 0 0 0 0 0 -0 -0 0 0 0 0 0 nan
nan 0 0 -0 -0 -1 -0 -0 -0 0 -0 0 0 -0 -1 -0 0 0 0 0 -0 -0 -0 -0 0 0 -0 -0 0 -0 0 0 0 -0 -0 0 0 0 0 0 0 -0 -0 -0 -0 0 0 0 nan
nan -0 -0 0 -0 -0 -0 -0 -0 -0 -0 -0 -0 -1 -1 0 0 1 0 -0 -0 0 0 0 0 0 0 0 0 0 -0 -0 -0 -0 0 0 0 0 -0 -0 0 0 -0 -0 0 0 -0 -0 nan
nan -1 -0 -1 -0 -0 -0 -0 0 -0 -0 -0 -0 -0 -1 -0 -0 -1 0 0 0 -0 0 1 1 0 0 0 0 -0 -0 0 0 0 0 0 0 0 0 0 0 0 0 -0 0 0 0 -0 nan
nan 0 0 -0 -0 -0 -0 -0 0 -0 -0 -0 -1 -0 1 1 0 -0 -0 0 -0 -0 -0 1 1 -0 0 0 0 -0 -0 0 0 0 0 0 0 0 0 0 0 0 0 0 0 0 -0 -0 nan
nan -1 -1 -0 -0 0 0 -0 0 -0 -0 -0 0 -2 1 1 -0 0 -0 -0 -0 -0 0 0 -0 -0 0 0 0 0 1 0 -0 -0 0 0 0 0 -0 0 0 0 0 0 0 0 0 -0 nan
nan -1 -0 0 0 -0 -0 0 -0 -0 -0 -0 -0 0 -0 -0 0 0 -0 0 0 0 0 -0 0 1 1 1 1 0 1 0 -0 -0 -0 -0 0 0 0 0 0 0 0 0 0 0 0 0 nan
nan -1 0 0 0 0 -0 -0 -0 -0 -0 -0 -0 -0 -1 -0 -0 -0 0 0 0 0 0 1 1 1 1 1 1 1 0 -0 -0 -0 -0 -0 -0 -0 0 0 0 0 -0 0 0 0 0 0 nan
nan -0 -0 -0 0 -0 -0 -0 -0 0 0 -0 0 0 1 -0 -0 -0 -0 -0 0 0 -0 -0 -0 0 0 0 0 0 0 -0 -0 -0 -0 0 0 -1 -0 1 0 0 -0 -0 -0 0 0 0 nan
nan -0 -0 -0 0 0 0 0 0 0 0 0 -0 -0 0 0 0 -0 0 0 0 -0 -0 -0 0 0 0 0 0 0 0 -0 -0 -0 -0 -0 0 0 -0 -0 -0 -0 0 0 -0 -0 0 0 nan
nan -1 -1 -0 0 1 -0 0 -0 0 -0 -0 -0 -0 -0 -0 0 0 0 -0 -0 -0 -0 -0 -0 -0 -0 -0 -0 -0 -0 -0 -0 -0 -0 -0 -0 -0 -0 -0 0 0 -0 -0 -0 0 0 -0 nan
nan nan nan nan nan nan nan nan nan nan nan nan nan nan nan nan nan nan nan nan nan nan nan nan nan nan nan nan nan nan nan nan nan nan nan nan nan nan nan nan nan nan nan nan nan nan nan nan nan
Wind_Speed
2 6 5 0 4 5 1 1 2 4 2 1 13 4 6 4 3 3 17 33 32 32 29 24 21 20 19 18 16 15 15 15 14 15 14 14 13 13 13 12 11 13 12 13 10 9 9 10 14
3 5 2 0 5 3 4 2 6 2 4 18 16 8 4 3 5 17 36 30 31 31 28 24 21 19 18 16 15 14 12 12 12 13 12 12 11 10 10 11 11 11 12 11 9 10 10 11 13
2 3 3 3 3 2 1 1 6 11 11 3 5 7 3 6 15 34 30 31 31 29 26 23 20 19 18 17 15 14 11 10 9 10 10 10 9 9 9 10 11 12 11 10 10 11 13 12 14
4 1 3 3 1 1 4 5 11 9 4 4 11 6 8 4 31 24 28 33 31 28 25 22 21 19 18 15 14 12 10 8 7 7 8 8 8 9 9 11 11 11 10 10 10 12 13 14 14
3 2 4 3 1 1 4 11 18 7 8 5 6 4 11 25 21 23 29 32 29 27 24 22 21 19 16 14 11 10 9 8 7 6 6 6 7 9 9 11 12 11 10 9 9 12 13 15 16
3 3 4 1 1 2 5 18 13 4 11 15 14 11 7 10 23 24 28 30 26 25 24 23 20 18 15 13 11 9 8 8 6 5 5 5 6 7 8 9 10 11 11 9 9 11 12 15 16
1 3 4 1 2 4 3 18 11 13 13 10 17 4 9 23 21 23 28 29 26 23 22 20 19 17 15 13 12 10 9 8 7 6 5 6 5 6 7 8 8 9 10 10 9 10 12 13 15
3 3 1 3 2 4 5 6 15 16 3 18 21 6 10 29 26 24 28 26 26 24 21 19 18 16 15 13 11 10 8 8 7 7 6 6 5 6 6 7 8 8 8 8 8 8 10 12 14
2 3 3 4 6 6 11 5 9 7 18 3 7 20 31 33 29 27 30 26 26 24 22 20 18 15 13 11 9 8 8 8 8 7 7 6 5 6 5 7 8 8 7 7 7 7 8 10 13
5 3 8 6 6 5 11 12 10 7 14 16 24 23 34 32 29 26 29 28 24 23 22 19 17 15 13 12 10 10 10 10 11 8 8 4 4 5 6 4 8 9 7 6 6 7 9 10 11
4 4 5 2 15 20 13 9 7 18 4 22 31 36 34 31 29 25 26 23 17 19 21 20 17 14 14 13 13 13 12 11 10 8 8 6 5 7 6 4 5 5 4 5 6 4 9 10 11
5 10 7 8 16 13 8 13 13 10 9 22 25 34 38 35 31 27 27 22 21 19 18 18 17 15 14 12 14 14 14 10 8 6 7 2 3 3 4 4 3 4 4 4 5 5 7 9 11
5 2 13 13 18 15 20 11 10 14 23 25 29 30 31 32 32 27 25 22 19 19 21 20 16 16 15 15 14 14 12 9 5 3 6 3 3 4 2 4 5 4 3 4 4 7 8 9 10
10 3 18 13 17 17 14 14 6 17 27 27 30 31 31 32 30 30 27 25 19 19 21 19 16 16 13 15 13 10 8 6 4 5 3 4 6 10 6 8 6 6 3 3 4 6 5 8 10
7 5 6 6 6 6 20 5 4 26 26 24 24 31 31 33 29 28 27 23 18 20 17 15 15 14 13 12 11 9 7 5 5 5 5 1 2 1 3 5 7 8 6 5 5 4 4 6 8
5 4 4 4 7 12 4 1 6 23 24 20 15 16 18 24 28 30 28 23 20 16 18 15 12 14 15 13 9 8 9 9 7 7 6 2 1 2 3 2 3 3 4 8 4 6 5 5 6
7 1 3 3 5 4 4 3 1 15 18 15 14 16 17 15 25 27 28 26 21 16 18 18 18 13 16 14 13 10 10 11 10 7 7 4 3 3 3 4 1 3 5 6 3 3 2 1 2
4 5 4 4 3 7 10 4 2 6 14 15 13 15 15 17 20 24 26 29 26 21 20 19 18 16 17 15 14 13 16 13 11 12 8 7 5 4 6 7 7 3 4 3 2 3 2 5 5
3 3 7 3 7 6 6 4 3 7 10 8 10 17 18 14 13 17 19 25 29 27 23 21 21 19 20 19 16 14 20 17 15 13 12 10 9 7 6 7 10 10 7 5 5 5 5 7 6
3 7 4 4 5 6 6 5 6 7 2 5 14 16 12 18 15 11 14 19 24 31 26 22 22 21 20 19 15 14 16 18 16 15 13 13 11 11 11 8 10 9 13 9 7 5 7 6 5
2 5 5 7 5 7 7 4 6 4 8 7 8 14 11 11 9 12 8 12 24 28 30 24 20 22 19 19 19 18 16 21 20 19 17 16 15 14 14 10 8 11 12 15 12 12 11 10 8
7 9 6 10 5 4 2 2 4 6 6 4 8 14 21 16 5 9 15 11 19 25 28 27 24 23 19 21 22 22 20 20 21 20 19 16 16 17 16 15 14 15 13 13 16 16 16 15 11
10 4 8 5 6 5 8 5 6 4 5 6 13 6 20 18 6 8 2 9 6 18 24 27 23 21 19 23 23 22 25 24 21 23 21 21 20 18 20 20 18 18 17 16 15 14 14 16 15
2 5 9 6 5 3 4 3 5 1 4 4 4 16 28 26 18 5 3 2 4 9 22 24 16 20 6 15 27 27 28 28 28 26 27 23 21 20 21 20 20 21 19 18 17 15 16 15 17
5 7 3 4 5 4 2 3 5 5 6 6 19 8 13 10 19 9 2 4 2 2 11 15 23 20 23 16 18 23 28 25 27 24 25 27 25 22 23 23 23 23 22 19 18 18 16 16 18
2 9 6 4 4 2 3 2 3 4 8 13 15 24 19 19 20 18 15 13 15 10 7 9 13 12 27 18 21 24 19 22 16 20 24 26 26 22 22 23 24 24 22 21 19 21 18 16 17
3 2 3 8 3 3 4 5 4 5 7 9 9 20 22 19 14 11 9 11 15 15 14 13 9 13 13 10 6 9 17 18 17 19 20 25 23 18 21 27 29 27 25 22 19 18 20 19 17
5 5 3 4 4 2 3 5 5 8 10 8 8 20 23 18 16 13 11 12 12 13 13 9 7 6 5 1 2 5 8 11 14 17 17 18 17 16 24 24 24 22 23 25 26 27 22 21 21
2 3 8 6 3 5 1 6 5 10 13 11 14 23 25 20 15 11 10 10 10 13 13 12 10 9 7 5 5 5 7 10 13 15 16 17 17 18 16 19 22 21 23 23 21 23 23 23 23
4 5 5 5 4 1 4 6 3 10 17 23 22 24 21 19 17 12 8 5 6 10 14 15 13 13 12 12 11 12 13 14 15 14 16 17 17 16 17 17 17 19 22 27 25 25 25 24 25
Wind_Direction
27 352 346 90 49 64 102 218 101 145 232 31 144 159 169 90 170 202 148 160 162 161 160 158 153 150 148 144 138 130 125 120 114 108 109 108 109 111 114 119 118 120 119 125 126 125 130 123 123
16 345 332 270 78 70 308 206 220 132 118 111 95 111 53 86 102 140 150 159 164 161 163 161 158 156 154 149 145 137 129 123 117 109 106 106 110 114 119 120 129 127 125 123 128 131 136 137 132
9 331 354 80 98 155 125 307 98 133 126 138 102 88 83 106 136 139 154 160 164 163 165 163 162 158 154 150 144 139 136 129 121 114 105 103 105 106 121 130 130 138 134 130 129 137 142 145 142
339 90 58 73 270 326 114 186 125 150 98 113 115 76 73 15 138 146 156 162 164 164 166 165 163 161 159 156 152 150 148 140 132 124 114 110 107 110 123 135 135 135 142 143 138 145 148 152 152
340 39 44 66 57 247 123 139 152 161 126 136 120 78 100 137 147 149 156 163 165 164 167 169 168 169 169 167 170 165 165 162 149 140 130 120 115 116 121 136 139 137 139 148 153 152 161 162 159
349 68 53 34 313 347 73 152 171 139 120 111 106 103 118 163 154 156 162 164 167 165 168 173 175 178 182 182 188 188 187 184 173 163 158 145 134 131 136 138 145 146 143 144 148 165 168 172 172
98 86 178 172 206 60 66 148 151 138 131 118 136 87 131 157 153 155 165 166 168 171 172 179 183 188 190 191 192 194 193 195 193 185 183 173 161 151 153 153 152 152 154 153 155 159 172 181 189
291 105 253 189 212 96 118 142 140 141 131 141 149 143 159 161 157 157 164 169 174 175 178 181 181 185 187 188 194 191 187 194 196 195 190 187 174 158 158 165 163 161 160 158 166 178 179 184 196
182 37 302 205 163 168 154 125 155 131 134 100 211 166 158 158 158 158 164 173 174 177 181 184 184 185 188 190 191 189 182 183 190 187 181 190 176 173 178 193 185 172 170 175 181 190 197 199 198
134 119 214 190 150 135 153 123 113 107 103 88 97 135 155 165 165 157 169 171 178 183 187 191 192 188 187 188 187 182 176 179 180 182 172 199 198 176 168 148 180 183 179 181 193 209 210 210 211
184 210 170 69 135 139 136 117 115 117 87 135 130 145 166 173 172 169 181 183 179 190 194 195 196 195 190 187 186 185 176 176 185 168 135 115 193 195 182 152 139 153 167 191 209 221 208 216 209
196 230 130 143 137 129 130 115 125 118 148 152 150 163 172 180 180 188 184 185 186 190 190 187 190 193 181 178 180 172 165 171 182 182 186 55 113 173 197 212 208 199 197 221 239 246 216 212 208
216 117 127 133 141 126 138 116 112 114 149 155 157 167 177 184 187 197 188 184 189 184 170 171 172 173 180 184 170 182 182 201 223 202 163 209 350 157 102 204 201 190 203 244 245 227 218 211 215
319 168 111 108 123 138 115 110 90 156 156 152 166 173 180 183 193 192 193 194 201 195 183 186 187 174 182 189 188 185 193 186 203 226 191 149 79 104 92 90 109 148 133 167 157 171 183 198 199
56 73 47 86 139 100 108 41 110 165 162 164 166 184 187 197 199 203 200 208 211 206 207 200 201 196 188 195 203 206 208 209 212 235 232 183 97 209 302 328 88 71 71 38 95 128 162 173 183
49 63 108 260 166 166 87 137 153 163 159 158 167 174 190 208 216 212 209 216 215 220 211 203 206 209 203 204 208 218 223 222 227 241 228 252 339 344 234 296 25 52 42 14 79 114 83 172 211
5 253 174 136 292 132 80 119 260 161 160 138 153 174 188 196 207 212 217 220 224 227 220 213 208 210 201 204 212 219 226 226 226 234 245 236 266 308 327 243 227 350 359 19 47 61 69 41 288
331 347 297 148 34 61 86 77 63 163 172 163 167 190 200 195 196 210 220 219 226 227 222 225 219 211 211 209 212 228 228 230 229 237 241 251 253 279 320 240 230 277 320 24 351 355 321 335 354
253 253 268 90 131 81 64 69 351 163 168 155 192 208 198 173 184 202 212 222 222 229 217 222 226 219 213 209 210 220 221 228 235 237 239 249 261 258 279 252 238 253 265 274 301 281 314 353 321
181 257 232 51 72 79 107 51 346 32 258 270 223 228 229 217 187 194 214 216 223 225 224 223 223 219 221 217 217 227 225 228 235 235 241 250 248 253 255 281 253 254 254 255 265 264 279 306 309
18 187 195 156 112 82 130 46 345 333 327 294 242 274 268 305 245 197 211 252 227 225 226 226 230 220 226 224 226 234 234 231 237 238 237 238 244 249 249 264 269 261 263 248 261 265 274 285 284
302 212 188 134 112 130 353 141 320 312 348 338 300 272 285 284 328 331 266 262 238 234 226 228 235 227 236 238 237 242 250 247 246 247 248 245 247 252 254 256 256 259 254 257 257 261 268 278 273
241 187 137 102 92 103 355 94 258 288 352 357 306 295 312 284 224 26 358 227 229 221 238 238 236 240 243 233 243 248 257 258 260 250 252 248 251 254 251 255 259 262 263 261 256 260 268 264 261
90 88 40 56 80 61 251 133 266 247 250 312 40 305 294 280 230 277 57 32 257 235 231 231 230 225 264 261 251 252 255 257 262 255 251 247 247 256 253 255 257 255 257 258 257 260 261 266 262
92 60 359 5 14 202 62 97 229 215 231 218 144 233 269 257 224 186 95 66 155 200 218 221 233 230 233 266 251 249 260 261 255 255 259 256 254 257 256 257 258 259 265 265 264 257 260 263 267
191 148 152 214 190 254 21 237 163 170 123 184 165 133 114 108 122 126 96 80 77 79 102 195 206 234 219 211 253 245 258 272 264 255 252 256 259 265 271 271 263 264 267 271 265 261 262 267 270
165 71 167 104 49 83 285 270 293 183 141 189 141 113 111 115 118 97 69 64 58 60 62 87 100 101 118 160 218 253 262 268 270 274 268 266 267 260 272 259 256 260 260 258 259 264 259 262 267
131 148 73 30 125 226 274 280 206 147 156 182 159 126 124 123 118 106 85 59 43 42 42 45 47 55 81 129 203 245 255 265 273 277 282 282 284 269 264 267 265 260 256 258 262 267 261 257 259
71 66 54 107 108 146 293 270 198 159 170 168 163 145 140 139 131 112 87 62 39 25 16 10 1 353 345 333 306 296 284 281 277 278 280 281 278 269 265 261 258 255 257 259 255 260 266 262 269
87 104 119 117 224 218 146 268 352 162 156 156 165 159 157 151 144 138 137 101 50 16 360 352 344 335 329 320 308 297 296 295 297 292 286 286 287 287 280 272 261 255 253 252 254 255 255 259 261
Height
1502 1500 1500 1500 1509 1510 1518 1513 1505 1510 1509 1508 1509 1509 1512 1513 1516 1528 1518 1524 1531 1535 1540 1543 1547 1550 1552 1553 1555 1556 1556 1556 1557 1557 1558 1558 1558 1557 1558 1559 1560 1561 1561 1561 1562 1563 1563 1564 1565
1503 1503 1503 1500 1519 1526 1524 1505 1507 1508 1507 1508 1510 1512 1513 1515 1515 1516 1521 1528 1533 1538 1541 1545 1548 1550 1553 1555 1556 1557 1558 1558 1558 1558 1558 1559 1560 1560 1559 1560 1561 1563 1563 1564 1564 1565 1566 1566 1568
1504 1503 1503 1506 1520 1527 1522 1504 1506 1508 1509 1510 1511 1513 1514 1516 1517 1520 1525 1530 1535 1540 1544 1547 1550 1552 1554 1555 1557 1559 1559 1560 1560 1559 1560 1560 1561 1562 1561 1561 1562 1563 1565 1566 1566 1566 1567 1569 1571
1504 1505 1506 1515 1519 1506 1507 1504 1506 1509 1510 1511 1512 1515 1518 1519 1520 1523 1527 1532 1537 1542 1546 1550 1552 1554 1555 1556 1558 1559 1560 1561 1561 1561 1561 1561 1562 1563 1563 1562 1562 1564 1565 1567 1568 1569 1570 1571 1573
1505 1503 1513 1515 1511 1503 1502 1503 1507 1507 1510 1512 1513 1518 1522 1525 1526 1527 1530 1534 1539 1543 1547 1551 1554 1556 1558 1558 1560 1560 1561 1562 1562 1562 1562 1562 1563 1564 1564 1564 1563 1564 1566 1568 1570 1571 1572 1573 1575
1505 1507 1522 1528 1512 1504 1504 1503 1505 1509 1512 1515 1517 1519 1526 1527 1528 1530 1533 1538 1542 1544 1548 1552 1555 1557 1559 1560 1561 1561 1561 1562 1563 1563 1564 1564 1563 1563 1564 1565 1565 1565 1566 1568 1570 1572 1573 1574 1575
1507 1513 1519 1514 1514 1509 1505 1507 1507 1509 1512 1515 1517 1521 1527 1529 1532 1533 1537 1541 1544 1548 1550 1553 1555 1557 1559 1561 1561 1561 1562 1563 1564 1564 1565 1565 1564 1564 1564 1565 1566 1566 1567 1569 1571 1572 1574 1575 1576
1506 1508 1515 1509 1516 1515 1507 1508 1509 1510 1514 1516 1517 1523 1528 1529 1533 1536 1541 1544 1546 1549 1551 1553 1555 1557 1558 1561 1561 1562 1563 1563 1564 1564 1565 1565 1564 1564 1565 1565 1566 1567 1568 1568 1570 1572 1574 1576 1577
1504 1515 1521 1509 1513 1509 1507 1507 1512 1512 1514 1516 1518 1518 1524 1530 1534 1537 1541 1545 1548 1550 1551 1553 1555 1557 1558 1560 1561 1562 1562 1563 1563 1564 1564 1564 1566 1566 1566 1565 1566 1567 1568 1568 1569 1571 1573 1574 1575
1502 1520 1509 1496 1499 1504 1504 1505 1508 1514 1518 1521 1520 1525 1529 1533 1537 1541 1543 1544 1548 1550 1551 1553 1556 1557 1558 1560 1561 1562 1562 1562 1563 1563 1564 1566 1565 1566 1566 1565 1566 1567 1567 1567 1568 1569 1571 1571 1573
1499 1508 1493 1494 1496 1499 1502 1506 1509 1514 1522 1520 1523 1528 1532 1534 1539 1541 1543 1544 1545 1549 1551 1553 1556 1558 1559 1560 1560 1561 1562 1563 1563 1564 1563 1565 1565 1566 1566 1566 1566 1566 1567 1567 1568 1568 1569 1570 1571
1498 1493 1492 1496 1498 1501 1505 1508 1513 1515 1521 1522 1524 1527 1531 1534 1537 1539 1540 1544 1546 1549 1551 1553 1555 1557 1558 1560 1560 1561 1562 1563 1564 1565 1565 1566 1566 1566 1567 1567 1566 1566 1566 1567 1567 1567 1567 1568 1569
1493 1491 1494 1497 1499 1503 1505 1508 1513 1519 1521 1521 1524 1528 1531 1533 1536 1538 1541 1544 1546 1548 1550 1552 1555 1556 1557 1560 1561 1562 1563 1563 1565 1566 1567 1567 1566 1566 1567 1566 1566 1566 1566 1566 1566 1566 1565 1566 1567
1495 1492 1499 1502 1500 1502 1505 1513 1515 1521 1522 1525 1526 1528 1531 1532 1534 1538 1541 1543 1545 1548 1550 1552 1554 1556 1558 1560 1561 1563 1564 1564 1565 1566 1568 1567 1566 1565 1567 1566 1565 1565 1565 1566 1565 1564 1563 1564 1566
1495 1500 1500 1505 1506 1509 1509 1518 1519 1520 1525 1528 1530 1530 1531 1532 1534 1535 1537 1540 1543 1546 1549 1551 1553 1556 1558 1561 1562 1562 1563 1564 1565 1566 1567 1567 1566 1566 1566 1567 1565 1564 1566 1564 1565 1564 1563 1564 1566
1498 1503 1518 1504 1506 1508 1509 1531 1522 1524 1527 1529 1529 1531 1532 1533 1533 1535 1537 1538 1540 1544 1546 1550 1553 1555 1558 1559 1561 1562 1563 1564 1564 1565 1566 1566 1565 1565 1565 1566 1566 1565 1566 1566 1564 1566 1565 1565 1566
1513 1522 1517 1513 1504 1505 1510 1528 1525 1527 1526 1526 1526 1525 1525 1527 1531 1534 1537 1538 1540 1543 1545 1549 1551 1552 1555 1558 1560 1561 1561 1562 1564 1564 1565 1565 1564 1564 1563 1565 1565 1564 1565 1565 1566 1565 1565 1565 1565
1525 1524 1513 1516 1512 1510 1519 1526 1526 1527 1525 1524 1523 1522 1523 1523 1521 1527 1532 1536 1540 1543 1545 1548 1550 1551 1554 1556 1559 1560 1560 1561 1562 1563 1563 1563 1563 1562 1561 1562 1564 1564 1565 1565 1565 1565 1565 1564 1563
1516 1521 1521 1512 1511 1514 1528 1531 1528 1529 1528 1527 1525 1521 1523 1523 1521 1523 1528 1533 1539 1543 1544 1547 1549 1552 1553 1554 1556 1557 1559 1560 1561 1561 1562 1562 1563 1562 1561 1561 1562 1563 1564 1564 1563 1563 1564 1563 1562
1515 1519 1519 1514 1513 1518 1535 1539 1533 1532 1531 1530 1526 1522 1522 1521 1520 1524 1528 1531 1534 1539 1543 1545 1547 1550 1553 1555 1556 1557 1558 1559 1559 1560 1560 1560 1561 1561 1560 1560 1560 1560 1562 1562 1561 1561 1562 1562 1562
1512 1515 1516 1514 1516 1524 1533 1547 1541 1534 1532 1530 1529 1526 1520 1522 1524 1528 1531 1536 1535 1538 1541 1544 1546 1549 1551 1554 1556 1557 1557 1557 1557 1558 1558 1559 1559 1559 1559 1558 1558 1559 1559 1560 1560 1559 1559 1560 1560
1520 1500 1498 1511 1521 1546 1531 1572 1549 1541 1533 1528 1526 1527 1525 1527 1528 1531 1533 1537 1538 1538 1541 1543 1546 1549 1553 1554 1555 1556 1557 1557 1556 1556 1556 1556 1557 1556 1556 1556 1556 1556 1556 1556 1557 1556 1556 1557 1558
1506 1493 1500 1510 1527 1537 1544 1557 1553 1542 1538 1531 1524 1515 1522 1530 1536 1536 1532 1537 1539 1536 1539 1541 1544 1549 1551 1553 1554 1554 1555 1555 1555 1555 1554 1553 1553 1553 1553 1553 1553 1553 1553 1553 1554 1554 1553 1553 1555
1492 1498 1513 1523 1537 1565 1548 1553 1558 1554 1543 1537 1531 1523 1528 1530 1536 1535 1535 1537 1536 1535 1537 1539 1539 1542 1548 1549 1551 1551 1550 1550 1549 1549 1550 1550 1550 1551 1550 1549 1549 1549 1549 1550 1550 1551 1551 1551 1551
1496 1516 1551 1548 1560 1561 1548 1554 1550 1540 1540 1539 1536 1535 1538 1528 1531 1536 1536 1537 1535 1535 1534 1534 1535 1538 1542 1547 1549 1548 1544 1545 1544 1543 1545 1545 1546 1547 1548 1547 1545 1545 1545 1546 1547 1547 1547 1548 1548
1496 1510 1546 1551 1569 1560 1546 1551 1542 1534 1531 1537 1535 1527 1531 1532 1532 1536 1538 1536 1536 1534 1530 1534 1536 1538 1541 1537 1541 1544 1542 1538 1540 1541 1540 1540 1541 1544 1545 1545 1543 1542 1541 1540 1541 1542 1543 1544 1544
1500 1517 1511 1547 1555 1561 1565 1544 1536 1532 1533 1535 1534 1532 1533 1533 1536 1535 1537 1537 1538 1535 1536 1538 1539 1539 1540 1539 1540 1539 1539 1539 1538 1537 1536 1535 1531 1532 1529 1537 1536 1538 1537 1536 1537 1537 1537 1538 1538
1488 1502 1523 1540 1561 1559 1561 1555 1547 1537 1535 1533 1535 1530 1533 1536 1536 1536 1536 1535 1536 1536 1536 1538 1539 1538 1537 1535 1536 1536 1537 1536 1534 1533 1531 1530 1530 1533 1531 1531 1528 1530 1532 1532 1532 1531 1532 1531 1531
1501 1512 1530 1542 1554 1568 1571 1554 1522 1525 1525 1528 1530 1528 1529 1533 1535 1537 1536 1536 1536 1536 1536 1536 1536 1535 1535 1534 1534 1534 1533 1531 1531 1528 1526 1524 1525 1524 1524 1523 1523 1524 1523 1524 1523 1525 1527 1528 1526
1496 1509 1519 1542 1553 1558 1555 1545 1514 1515 1518 1521 1524 1527 1528 1531 1534 1537 1538 1538 1536 1536 1536 1536 1535 1535 1533 1532 1530 1529 1528 1527 1526 1524 1522 1521 1519 1518 1517 1517 1516 1517 1517 1517 1516 1518 1520 1522 1522